| time (UTC) | temp C | wind direction | speed KPH | gust KPH | rain 1hr cm | rain 24hr cm | rain mn cm | humidity % | barometer mb |
| 20260510191154 | 12 | 148 | 12.9 | 20.9 | 0.05 | 1.47 | 0.91 | 80 | 1008.6 |
| 20260510185654 | 12 | 101 | 6.4 | 16.1 | 0.05 | 1.52 | 0.91 | 82 | 1008.4 |
| 20260510184842 | 12 | 113 | 8.0 | 16.1 | 0.05 | 1.52 | 0.89 | 83 | 1008.5 |
| 20260510182654 | 12 | 93 | 8.0 | 14.5 | 0.05 | 1.55 | 0.89 | 84 | 1008.3 |
| 20260510181153 | 12 | 110 | 8.0 | 12.9 | 0.05 | 1.57 | 0.89 | 85 | 1008.3 |
| 20260510175653 | 12 | 153 | 4.8 | 9.7 | 0.05 | 1.63 | 0.89 | 86 | 1008.4 |
| 20260510174153 | 13 | 157 | 4.8 | 11.3 | 0.05 | 1.65 | 0.86 | 86 | 1008.6 |
| 20260510173355 | 13 | 101 | 8.0 | 12.9 | 0.05 | 1.73 | 0.86 | 86 | 1008.4 |
| 20260510171147 | 13 | 106 | 6.4 | 14.5 | 0.05 | 1.75 | 0.84 | 86 | 1008.4 |
| 20260510165648 | 13 | 121 | 6.4 | 14.5 | 0.08 | 1.83 | 0.84 | 86 | 1008.5 |
| 20260510164147 | 13 | 107 | 8.0 | 12.9 | 0.08 | 1.91 | 0.81 | 86 | 1008.5 |
| 20260510163344 | 13 | 98 | 6.4 | 12.9 | 0.08 | 2.01 | 0.79 | 86 | 1008.5 |
| 20260510161147 | 13 | 96 | 6.4 | 12.9 | 0.08 | 2.11 | 0.79 | 86 | 1008.6 |
| 20260510155647 | 13 | 161 | 6.4 | 20.9 | 0.08 | 2.08 | 0.76 | 85 | 1008.7 |
| 20260510154141 | 13 | 169 | 4.8 | 14.5 | 0.05 | 2.08 | 0.74 | 85 | 1009.0 |
| 20260510153350 | 13 | 197 | 6.4 | 16.1 | 0.05 | 2.06 | 0.71 | 84 | 1008.9 |
| 20260510151141 | 15 | 205 | 6.4 | 14.5 | 0.03 | 2.06 | 0.71 | 80 | 1008.7 |
| 20260510145641 | 16 | 246 | 4.8 | 16.1 | 0.00 | 2.03 | 0.69 | 72 | 1008.5 |
| 20260510144841 | 16 | 244 | 3.2 | 12.9 | 0.00 | 2.11 | 0.69 | 74 | 1008.6 |
| 20260510142640 | 15 | 127 | 4.8 | 11.3 | 0.00 | 2.31 | 0.69 | 76 | 1008.8 |
| 20260510141137 | 15 | 123 | 4.8 | 11.3 | 0.03 | 2.74 | 0.69 | 72 | 1008.8 |
| 20260510135637 | 15 | 144 | 1.6 | 8.0 | 0.05 | 2.87 | 0.69 | 75 | 1008.8 |
| 20260510134832 | 15 | 196 | 9.7 | 19.3 | 0.05 | 2.87 | 0.69 | 71 | 1009.0 |
| 20260510132634 | 14 | 159 | 8.0 | 17.7 | 0.05 | 2.87 | 0.69 | 77 | 1009.2 |
| 20260510131135 | 14 | 215 | 8.0 | 29.0 | 0.03 | 2.84 | 0.66 | 81 | 1009.3 |
| 20260510125638 | 15 | 178 | 4.8 | 17.7 | 0.00 | 2.82 | 0.64 | 73 | 1009.0 |
| 20260510124826 | 15 | 158 | 9.7 | 22.5 | 0.00 | 2.82 | 0.64 | 75 | 1009.0 |
| 20260510123319 | 16 | 144 | 9.7 | 17.7 | 0.00 | 2.82 | 0.64 | 65 | 1008.9 |
| 20260510121129 | 16 | 226 | 9.7 | 22.5 | 0.00 | 2.82 | 0.64 | 67 | 1009.0 |
| 20260510115629 | 15 | 198 | 9.7 | 24.1 | 0.00 | 2.82 | 0.64 | 67 | 1009.2 |
| 20260510114129 | 16 | 159 | 8.0 | 19.3 | 0.00 | 2.82 | 0.64 | 65 | 1009.2 |
| 20260510112629 | 16 | 246 | 11.3 | 30.6 | 0.03 | 2.82 | 0.64 | 67 | 1009.0 |
| 20260510111841 | 16 | 142 | 8.0 | 20.9 | 0.03 | 2.84 | 0.64 | 68 | 1009.0 |
| 20260510105630 | 15 | 146 | 9.7 | 24.1 | 0.05 | 2.87 | 0.64 | 71 | 1008.9 |
| 20260510104128 | 15 | 161 | 9.7 | 24.1 | 0.05 | 2.87 | 0.64 | 71 | 1009.0 |
| 20260510102627 | 14 | 146 | 12.9 | 27.4 | 0.05 | 2.87 | 0.61 | 77 | 1009.0 |
| 20260510101127 | 13 | 136 | 14.5 | 25.7 | 0.05 | 2.87 | 0.61 | 83 | 1008.8 |
| 20260510095627 | 13 | 173 | 9.7 | 22.5 | 0.05 | 2.87 | 0.61 | 84 | 1008.6 |
| 20260510094126 | 11 | 144 | 12.9 | 25.7 | 0.03 | 2.84 | 0.58 | 84 | 1008.8 |
| 20260510092627 | 12 | 163 | 8.0 | 27.4 | 0.00 | 2.82 | 0.56 | 82 | 1008.9 |
| 20260510091126 | 12 | 130 | 11.3 | 20.9 | 0.03 | 2.82 | 0.56 | 84 | 1008.6 |
| 20260510085626 | 11 | 119 | 11.3 | 16.1 | 0.05 | 2.82 | 0.56 | 86 | 1008.5 |
| 20260510084124 | 11 | 121 | 12.9 | 20.9 | 0.05 | 2.82 | 0.56 | 86 | 1008.5 |
| 20260510082624 | 11 | 126 | 11.3 | 17.7 | 0.05 | 2.82 | 0.56 | 86 | 1008.6 |
| 20260510081817 | 11 | 132 | 11.3 | 17.7 | 0.03 | 2.79 | 0.53 | 87 | 1008.3 |
| 20260510075624 | 11 | 83 | 11.3 | 20.9 | 0.00 | 2.77 | 0.51 | 86 | 1008.4 |
| 20260510074125 | 11 | 111 | 12.9 | 27.4 | 0.00 | 2.77 | 0.51 | 85 | 1008.2 |
| 20260510072624 | 10 | 148 | 11.3 | 22.5 | 0.03 | 2.77 | 0.51 | 85 | 1008.2 |
| 20260510071125 | 10 | 163 | 12.9 | 20.9 | 0.03 | 2.77 | 0.51 | 86 | 1008.0 |
| 20260510065625 | 11 | 119 | 11.3 | 22.5 | 0.03 | 2.77 | 0.51 | 86 | 1007.5 |
| 20260510064124 | 11 | 139 | 9.7 | 25.7 | 0.03 | 2.77 | 0.51 | 86 | 1007.7 |
| 20260510062624 | 11 | 180 | 6.4 | 16.1 | 0.00 | 2.77 | 0.51 | 86 | 1007.7 |
| 20260510061821 | 10 | 143 | 9.7 | 14.5 | 0.00 | 2.77 | 0.51 | 86 | 1007.4 |
| 20260510055622 | 10 | 131 | 9.7 | 16.1 | 0.00 | 2.77 | 0.51 | 86 | 1007.3 |
| 20260510054122 | 10 | 139 | 8.0 | 16.1 | 0.00 | 2.77 | 0.51 | 86 | 1007.4 |
| 20260510054023 | 10 | 145 | 9.7 | 16.1 | 0.03 | 2.77 | 0.51 | 86 | 1007.4 |
| 20260510051123 | 10 | 139 | 11.3 | 19.3 | 0.03 | 2.77 | 0.51 | 86 | 1007.3 |
| 20260510045622 | 10 | 137 | 11.3 | 20.9 | 0.05 | 2.77 | 0.51 | 86 | 1007.2 |
| 20260510044122 | 10 | 128 | 11.3 | 19.3 | 0.05 | 2.77 | 0.51 | 86 | 1007.2 |
| 20260510042622 | 10 | 147 | 11.3 | 16.1 | 0.05 | 2.74 | 0.48 | 86 | 1007.3 |
| 20260510041122 | 10 | 142 | 9.7 | 20.9 | 0.08 | 2.74 | 0.48 | 85 | 1007.4 |
| 20260510040313 | 10 | 121 | 11.3 | 19.3 | 0.10 | 2.72 | 0.46 | 85 | 1007.4 |
| 20260510034122 | 10 | 134 | 12.9 | 20.9 | 0.10 | 2.69 | 0.43 | 85 | 1007.4 |
| 20260510032622 | 10 | 135 | 9.7 | 14.5 | 0.10 | 2.69 | 0.43 | 86 | 1007.4 |
| 20260510031122 | 10 | 127 | 9.7 | 12.9 | 0.10 | 2.67 | 0.41 | 86 | 1007.4 |
| 20260510025622 | 10 | 128 | 9.7 | 12.9 | 0.08 | 2.62 | 0.36 | 86 | 1007.6 |
| 20260510024122 | 10 | 121 | 8.0 | 16.1 | 0.10 | 2.59 | 0.33 | 86 | 1007.6 |
| 20260510022622 | 10 | 132 | 12.9 | 16.1 | 0.10 | 2.59 | 0.33 | 86 | 1007.6 |
| 20260510021122 | 10 | 134 | 12.9 | 17.7 | 0.10 | 2.57 | 0.30 | 86 | 1007.7 |
| 20260510015623 | 10 | 153 | 11.3 | 17.7 | 0.10 | 2.54 | 0.28 | 86 | 1007.8 |
| 20260510014118 | 10 | 136 | 11.3 | 16.1 | 0.08 | 2.49 | 0.23 | 86 | 1007.9 |
| 20260510012617 | 10 | 144 | 14.5 | 20.9 | 0.08 | 2.49 | 0.23 | 86 | 1007.9 |
| 20260510011118 | 10 | 137 | 14.5 | 19.3 | 0.08 | 2.46 | 0.20 | 85 | 1007.9 |
| 20260510005614 | 10 | 130 | 12.9 | 22.5 | 0.08 | 2.46 | 0.18 | 85 | 1008.0 |
| 20260510004114 | 10 | 143 | 16.1 | 22.5 | 0.08 | 2.49 | 0.15 | 84 | 1008.2 |
| 20260510002614 | 10 | 138 | 14.5 | 22.5 | 0.10 | 2.49 | 0.15 | 83 | 1008.2 |
| 20260510001107 | 10 | 132 | 16.1 | 20.9 | 0.10 | 2.46 | 0.13 | 85 | 1008.4 |
| 20260509235608 | 10 | 124 | 14.5 | 19.3 | 0.10 | 2.44 | 0.10 | 87 | 1008.3 |
| 20260509234107 | 10 | 122 | 11.3 | 27.4 | 0.13 | 2.41 | 0.08 | 86 | 1008.6 |
| 20260509232606 | 10 | 136 | 16.1 | 33.8 | 0.10 | 2.39 | 0.05 | 85 | 1008.7 |
| 20260509231059 | 11 | 159 | 12.9 | 30.6 | 0.13 | 2.36 | 0.03 | 85 | 1008.6 |
| 20260509225600 | 11 | 148 | 12.9 | 19.3 | 0.13 | 2.34 | 2.34 | 86 | 1008.5 |
| 20260509224100 | 10 | 140 | 14.5 | 22.5 | 0.13 | 2.31 | 2.31 | 86 | 1008.3 |
| 20260509223304 | 10 | 154 | 16.1 | 25.7 | 0.15 | 2.29 | 2.29 | 86 | 1008.4 |
| 20260509221100 | 10 | 137 | 16.1 | 22.5 | 0.15 | 2.24 | 2.24 | 86 | 1008.2 |
| 20260509215559 | 11 | 128 | 14.5 | 20.9 | 0.15 | 2.21 | 2.21 | 85 | 1008.1 |
| 20260509214100 | 11 | 140 | 16.1 | 24.1 | 0.15 | 2.18 | 2.18 | 84 | 1008.1 |
| 20260509212559 | 11 | 136 | 17.7 | 25.7 | 0.18 | 2.13 | 2.13 | 83 | 1008.0 |
| 20260509211100 | 11 | 123 | 17.7 | 22.5 | 0.18 | 2.11 | 2.11 | 81 | 1007.9 |
| 20260509205600 | 11 | 130 | 16.1 | 25.7 | 0.20 | 2.06 | 2.06 | 81 | 1007.8 |
| 20260509204754 | 11 | 129 | 16.1 | 24.1 | 0.18 | 2.03 | 2.03 | 82 | 1007.7 |
| 20260509203251 | 11 | 146 | 16.1 | 29.0 | 0.15 | 1.96 | 1.98 | 84 | 1007.5 |
| 20260509201055 | 11 | 148 | 12.9 | 24.1 | 0.15 | 1.93 | 1.93 | 82 | 1007.6 |
| 20260509195556 | 11 | 138 | 17.7 | 24.1 | 0.13 | 1.85 | 1.85 | 83 | 1007.3 |
| 20260509194056 | 11 | 127 | 16.1 | 22.5 | 0.13 | 1.83 | 1.83 | 84 | 1007.0 |
| 20260509192555 | 11 | 132 | 9.7 | 30.6 | 0.13 | 1.80 | 1.83 | 86 | 1006.8 |
| 20260509191750 | 11 | 196 | 16.1 | 38.6 | 0.15 | 1.78 | 1.78 | 85 | 1006.8 |